Location: Alfortville
(48.8058°N, 2.4204°E)
Time: 14:32:13
(UTC+00:00)

Meteor 1-19 Rocket - Pass Details

Date: 09 December 2023
Orbit: 806 x 928 km, 81.2° (Epoch: 01 March)

Event Time Altitude Azimuth Distance (km) Brightness Sun altitude
Rises 04:18:36 0° 358° (N) 3,589 7.4 -30.6°
Reaches altitude 10° 04:22:20 10° 20° (NNE) 2,633 6.9 -30.0°
Maximum altitude 04:25:44 15° 55° (NE) 2,259 7.0 -29.4°
Drops below altitude 10° 04:29:05 10° 90° (E) 2,597 7.7 -28.8°
Sets 04:32:42 0° 112° (ESE) 3,512 8.5 -28.2°
